| time (UTC) | temp F | wind direction | speed MPH | gust MPH | rain 1hr in | rain 24hr in | rain mn in | humidity % | barometer mb |
| 20260502195558 | 43 | 292 | 1.0 | 6.0 | 0.00 | 0.00 | 0.00 | 67 | 862.4 |
| 20260502195058 | 43 | 315 | 3.0 | 6.0 | 0.00 | 0.00 | 0.00 | 68 | 862.6 |
| 20260502194558 | 43 | 315 | 6.0 | 6.0 | 0.00 | 0.00 | 0.00 | 67 | 862.5 |
| 20260502194058 | 44 | 315 | 7.0 | 7.0 | 0.00 | 0.00 | 0.00 | 67 | 862.8 |
| 20260502193558 | 44 | 315 | 5.0 | 6.0 | 0.00 | 0.00 | 0.00 | 67 | 862.9 |
| 20260502193058 | 44 | 315 | 2.0 | 7.0 | 0.00 | 0.00 | 0.00 | 67 | 862.8 |
| 20260502192558 | 44 | 315 | 2.0 | 7.0 | 0.00 | 0.00 | 0.00 | 67 | 863.2 |
| 20260502192058 | 44 | 315 | 7.0 | 7.0 | 0.00 | 0.00 | 0.00 | 67 | 863.0 |
| 20260502191558 | 44 | 315 | 3.0 | 7.0 | 0.00 | 0.00 | 0.00 | 67 | 863.4 |
| 20260502191058 | 44 | 315 | 3.0 | 7.0 | 0.00 | 0.00 | 0.00 | 67 | 863.2 |
| 20260502190558 | 44 | 315 | 6.0 | 7.0 | 0.00 | 0.00 | 0.00 | 67 | 863.0 |
| 20260502190058 | 44 | 315 | 3.0 | 7.0 | 0.00 | 0.00 | 0.00 | 67 | 863.0 |
| 20260502185558 | 44 | 315 | 2.0 | 6.0 | 0.00 | 0.00 | 0.00 | 67 | 863.1 |
| 20260502185058 | 44 | 337 | 2.0 | 6.0 | 0.00 | 0.00 | 0.00 | 66 | 863.0 |
| 20260502184558 | 44 | 315 | 2.0 | 7.0 | 0.00 | 0.00 | 0.00 | 66 | 862.9 |
| 20260502184058 | 44 | 315 | 2.0 | 6.0 | 0.00 | 0.00 | 0.00 | 65 | 863.2 |
| 20260502183558 | 44 | 292 | 7.0 | 7.0 | 0.00 | 0.00 | 0.00 | 64 | 863.1 |
| 20260502183058 | 45 | 315 | 4.0 | 6.0 | 0.00 | 0.00 | 0.00 | 63 | 863.1 |
| 20260502182558 | 45 | 315 | 5.0 | 5.0 | 0.00 | 0.00 | 0.00 | 61 | 863.0 |
| 20260502182058 | 46 | 315 | 5.0 | 6.0 | 0.00 | 0.00 | 0.00 | 59 | 863.0 |
| 20260502181558 | 48 | 315 | 5.0 | 5.0 | 0.00 | 0.00 | 0.00 | 57 | 862.9 |
| 20260502181058 | 50 | 315 | 3.0 | 4.0 | 0.00 | 0.00 | 0.00 | 55 | 863.0 |
| 20260502180558 | 51 | 315 | 2.0 | 6.0 | 0.00 | 0.00 | 0.00 | 54 | 863.2 |
| 20260502164059 | 60 | 0 | 6.0 | 6.0 | 0.00 | 0.00 | 0.00 | 44 | 863.9 |
| 20260502163559 | 62 | 45 | 3.0 | 7.0 | 0.00 | 0.00 | 0.00 | 43 | 863.7 |
| 20260502163059 | 62 | 45 | 0.0 | 6.0 | 0.00 | 0.00 | 0.00 | 43 | 863.9 |
| 20260502162559 | 63 | 22 | 0.0 | 6.0 | 0.00 | 0.00 | 0.00 | 42 | 863.7 |
| 20260502162100 | 64 | 90 | 1.0 | 7.0 | 0.00 | 0.00 | 0.00 | 42 | 863.8 |
| 20260502161600 | 65 | 0 | 7.0 | 9.0 | 0.00 | 0.00 | 0.00 | 44 | 863.8 |
| 20260502161059 | 64 | 22 | 6.0 | 7.0 | 0.00 | 0.00 | 0.00 | 45 | 863.8 |
| 20260502160600 | 64 | 22 | 2.0 | 6.0 | 0.00 | 0.00 | 0.00 | 45 | 863.8 |
| 20260502152058 | 55 | 0 | 0.0 | 6.0 | 0.00 | 0.00 | 0.00 | 53 | 864.3 |
| 20260502151558 | 54 | 337 | 0.0 | 8.0 | 0.00 | 0.00 | 0.00 | 53 | 864.3 |
| 20260502151158 | 54 | 337 | 0.0 | 0.0 | 0.00 | 0.00 | 0.00 | 53 | 864.0 |
| 20260502151058 | 54 | 337 | 0.0 | 0.0 | 0.00 | 0.00 | 0.00 | 53 | 864.0 |
| 20260502150558 | 53 | 315 | 0.0 | 6.0 | 0.00 | 0.00 | 0.00 | 52 | 864.4 |
| 20260502130633 | 55 | 112 | 0.0 | 8.0 | 0.00 | 0.00 | 0.00 | 53 | 864.4 |
| 20260502130559 | 55 | 112 | 0.0 | 8.0 | 0.00 | 0.00 | 0.00 | 53 | 864.4 |
| 20260502123559 | 52 | 22 | 3.0 | 5.0 | 0.00 | 0.00 | 0.00 | 57 | 863.7 |
| 20260502123059 | 51 | 337 | 0.0 | 0.0 | 0.00 | 0.00 | 0.00 | 57 | 863.8 |
| 20260502122559 | 51 | 22 | 0.0 | 6.0 | 0.00 | 0.00 | 0.00 | 57 | 863.7 |
| 20260502122059 | 50 | 90 | 0.0 | 3.0 | 0.00 | 0.00 | 0.00 | 58 | 863.8 |
| 20260502121559 | 50 | 337 | 0.0 | 0.0 | 0.00 | 0.00 | 0.00 | 57 | 864.2 |
| 20260502121059 | 50 | 315 | 2.0 | 8.0 | 0.00 | 0.00 | 0.00 | 57 | 864.0 |
| 20260502120559 | 50 | 0 | 0.0 | 10.0 | 0.00 | 0.00 | 0.00 | 56 | 863.9 |
| 20260502115559 | 50 | 337 | 0.0 | 7.0 | 0.00 | 0.00 | 0.00 | 56 | 863.9 |
| 20260502115059 | 51 | 337 | 1.0 | 11.0 | 0.00 | 0.00 | 0.00 | 56 | 863.8 |
| 20260502114559 | 51 | 0 | 9.0 | 9.0 | 0.00 | 0.00 | 0.00 | 56 | 863.5 |
| 20260502114059 | 51 | 0 | 0.0 | 3.0 | 0.00 | 0.00 | 0.00 | 56 | 863.5 |
| 20260502113559 | 51 | 0 | 0.0 | 5.0 | 0.00 | 0.00 | 0.00 | 55 | 863.7 |
| 20260502113059 | 52 | 337 | 0.0 | 6.0 | 0.00 | 0.00 | 0.00 | 55 | 864.0 |
| 20260502112559 | 52 | 67 | 6.0 | 6.0 | 0.00 | 0.00 | 0.00 | 54 | 863.5 |
| 20260502112059 | 53 | 22 | 0.0 | 2.0 | 0.00 | 0.00 | 0.00 | 53 | 863.7 |
| 20260502111559 | 54 | 135 | 0.0 | 2.0 | 0.00 | 0.00 | 0.00 | 51 | 863.9 |
| 20260502111059 | 54 | 112 | 0.0 | 1.0 | 0.00 | 0.00 | 0.00 | 53 | 864.0 |
| 20260502110559 | 52 | 112 | 0.0 | 2.0 | 0.00 | 0.00 | 0.00 | 54 | 864.2 |
| 20260502110059 | 53 | 135 | 1.0 | 4.0 | 0.00 | 0.00 | 0.00 | 53 | 864.0 |
| 20260502105643 | 53 | 112 | 0.0 | 1.0 | 0.00 | 0.00 | 0.00 | 54 | 864.3 |
| 20260502105559 | 53 | 112 | 0.0 | 1.0 | 0.00 | 0.00 | 0.00 | 54 | 864.3 |
| 20260502105059 | 52 | 135 | 0.0 | 3.0 | 0.00 | 0.00 | 0.00 | 55 | 864.2 |
| 20260502104559 | 50 | 112 | 0.0 | 1.0 | 0.00 | 0.00 | 0.00 | 57 | 864.3 |
| 20260502104059 | 48 | 90 | 0.0 | 0.0 | 0.00 | 0.00 | 0.00 | 60 | 864.3 |
| 20260502103559 | 46 | 90 | 0.0 | 1.0 | 0.00 | 0.00 | 0.00 | 60 | 864.2 |
| 20260502103059 | 46 | 135 | 0.0 | 3.0 | 0.00 | 0.00 | 0.00 | 59 | 864.3 |
| 20260502102559 | 46 | 135 | 2.0 | 4.0 | 0.00 | 0.00 | 0.00 | 60 | 864.3 |
| 20260502102059 | 45 | 135 | 0.0 | 4.0 | 0.00 | 0.00 | 0.00 | 60 | 864.5 |
| 20260502101559 | 44 | 157 | 0.0 | 2.0 | 0.00 | 0.00 | 0.00 | 60 | 864.5 |
| 20260502101059 | 44 | 157 | 0.0 | 4.0 | 0.00 | 0.00 | 0.00 | 60 | 864.6 |
| 20260502100633 | 44 | 157 | 0.0 | 5.0 | 0.00 | 0.00 | 0.00 | 60 | 864.8 |
| 20260502100559 | 44 | 157 | 0.0 | 5.0 | 0.00 | 0.00 | 0.00 | 60 | 864.8 |
| 20260502091102 | 43 | 135 | 4.0 | 7.0 | 0.00 | 0.00 | 0.00 | 58 | 865.6 |
| 20260502090600 | 43 | 135 | 3.0 | 7.0 | 0.00 | 0.00 | 0.00 | 57 | 865.5 |
| 20260502071100 | 40 | 135 | 5.0 | 5.0 | 0.00 | 0.00 | 0.00 | 60 | 864.4 |
| 20260502070600 | 40 | 135 | 0.0 | 4.0 | 0.00 | 0.00 | 0.00 | 60 | 864.2 |
| 20260502065600 | 41 | 157 | 2.0 | 6.0 | 0.00 | 0.00 | 0.00 | 57 | 863.9 |
| 20260502065100 | 42 | 135 | 0.0 | 5.0 | 0.00 | 0.00 | 0.00 | 56 | 863.8 |
| 20260502064600 | 43 | 135 | 2.0 | 5.0 | 0.00 | 0.00 | 0.00 | 54 | 863.9 |
| 20260502064101 | 44 | 135 | 1.0 | 6.0 | 0.00 | 0.00 | 0.00 | 53 | 863.9 |
| 20260502063601 | 43 | 135 | 4.0 | 5.0 | 0.00 | 0.00 | 0.00 | 55 | 863.7 |
| 20260502063100 | 42 | 135 | 2.0 | 6.0 | 0.00 | 0.00 | 0.00 | 56 | 863.8 |
| 20260502062600 | 40 | 135 | 6.0 | 7.0 | 0.00 | 0.00 | 0.00 | 57 | 863.9 |
| 20260502062100 | 39 | 135 | 6.0 | 8.0 | 0.00 | 0.00 | 0.00 | 58 | 863.9 |
| 20260502061600 | 39 | 157 | 6.0 | 8.0 | 0.00 | 0.00 | 0.00 | 58 | 863.8 |
| 20260502061101 | 39 | 157 | 6.0 | 8.0 | 0.00 | 0.00 | 0.00 | 56 | 864.0 |
| 20260502060600 | 41 | 157 | 7.0 | 7.0 | 0.00 | 0.00 | 0.00 | 54 | 863.8 |
| 20260502060100 | 42 | 135 | 6.0 | 6.0 | 0.00 | 0.00 | 0.00 | 53 | 863.7 |
| 20260502055600 | 42 | 157 | 6.0 | 6.0 | 0.00 | 0.00 | 0.00 | 53 | 864.0 |
| 20260502055100 | 42 | 157 | 6.0 | 7.0 | 0.00 | 0.00 | 0.00 | 52 | 863.9 |
| 20260502054600 | 41 | 157 | 6.0 | 6.0 | 0.00 | 0.00 | 0.00 | 53 | 863.8 |
| 20260502054100 | 41 | 157 | 6.0 | 7.0 | 0.00 | 0.00 | 0.00 | 54 | 863.6 |
| 20260502053600 | 40 | 135 | 5.0 | 6.0 | 0.00 | 0.00 | 0.00 | 55 | 863.5 |
| 20260502053100 | 40 | 135 | 5.0 | 6.0 | 0.00 | 0.00 | 0.00 | 55 | 863.6 |
| 20260502052600 | 39 | 135 | 5.0 | 6.0 | 0.00 | 0.00 | 0.00 | 55 | 863.4 |
| 20260502052100 | 39 | 135 | 6.0 | 6.0 | 0.00 | 0.00 | 0.00 | 56 | 863.4 |
| 20260502051600 | 39 | 135 | 6.0 | 6.0 | 0.00 | 0.00 | 0.00 | 56 | 863.3 |
| 20260502051100 | 39 | 135 | 5.0 | 5.0 | 0.00 | 0.00 | 0.00 | 57 | 863.1 |
| 20260502050601 | 38 | 135 | 4.0 | 8.0 | 0.00 | 0.00 | 0.00 | 57 | 863.0 |
| 20260502050101 | 38 | 135 | 7.0 | 8.0 | 0.00 | 0.00 | 0.00 | 57 | 862.9 |
| 20260502045601 | 38 | 135 | 7.0 | 9.0 | 0.00 | 0.00 | 0.00 | 57 | 862.8 |
| 20260502045101 | 38 | 135 | 7.0 | 7.0 | 0.00 | 0.00 | 0.00 | 56 | 862.7 |
| 20260502044601 | 38 | 112 | 6.0 | 6.0 | 0.00 | 0.00 | 0.00 | 56 | 862.8 |
| 20260502044101 | 39 | 135 | 5.0 | 5.0 | 0.00 | 0.00 | 0.00 | 57 | 862.9 |
| 20260502043601 | 38 | 112 | 4.0 | 5.0 | 0.00 | 0.00 | 0.00 | 58 | 862.7 |
| 20260502043101 | 38 | 112 | 1.0 | 6.0 | 0.00 | 0.00 | 0.00 | 59 | 862.5 |
| 20260502042601 | 37 | 45 | 6.0 | 6.0 | 0.00 | 0.00 | 0.00 | 61 | 862.5 |
| 20260502042101 | 37 | 0 | 3.0 | 4.0 | 0.00 | 0.00 | 0.00 | 62 | 862.5 |
| 20260502041601 | 37 | 0 | 1.0 | 4.0 | 0.00 | 0.00 | 0.00 | 62 | 862.5 |
| 20260502041101 | 36 | 337 | 3.0 | 7.0 | 0.00 | 0.00 | 0.00 | 62 | 862.6 |
| 20260502040601 | 36 | 0 | 6.0 | 7.0 | 0.00 | 0.00 | 0.00 | 62 | 862.4 |
| 20260502040101 | 36 | 337 | 6.0 | 7.0 | 0.00 | 0.00 | 0.00 | 62 | 862.6 |
| 20260502035601 | 36 | 337 | 3.0 | 6.0 | 0.00 | 0.00 | 0.00 | 62 | 862.8 |
| 20260502035101 | 36 | 337 | 3.0 | 4.0 | 0.00 | 0.00 | 0.00 | 62 | 862.6 |
| 20260502034601 | 36 | 337 | 3.0 | 5.0 | 0.00 | 0.00 | 0.00 | 63 | 862.6 |
| 20260502034101 | 36 | 337 | 3.0 | 6.0 | 0.00 | 0.00 | 0.00 | 63 | 862.7 |
| 20260502033601 | 36 | 0 | 3.0 | 6.0 | 0.00 | 0.00 | 0.00 | 63 | 862.6 |
| 20260502033101 | 36 | 337 | 4.0 | 7.0 | 0.00 | 0.00 | 0.00 | 63 | 862.6 |
| 20260502032601 | 36 | 0 | 4.0 | 8.0 | 0.00 | 0.00 | 0.00 | 63 | 862.7 |
| 20260502032101 | 36 | 0 | 3.0 | 8.0 | 0.00 | 0.00 | 0.00 | 64 | 862.7 |
| 20260502031602 | 36 | 22 | 7.0 | 7.0 | 0.00 | 0.00 | 0.00 | 64 | 862.6 |
| 20260502031101 | 36 | 22 | 6.0 | 6.0 | 0.00 | 0.00 | 0.00 | 64 | 862.7 |
| 20260502030601 | 36 | 22 | 4.0 | 5.0 | 0.00 | 0.00 | 0.00 | 64 | 862.6 |
| 20260502030101 | 36 | 22 | 2.0 | 4.0 | 0.00 | 0.00 | 0.00 | 64 | 862.7 |
| 20260502025601 | 36 | 22 | 3.0 | 5.0 | 0.00 | 0.00 | 0.00 | 65 | 862.8 |
| 20260502025101 | 36 | 22 | 3.0 | 6.0 | 0.00 | 0.00 | 0.00 | 65 | 862.8 |
| 20260502024601 | 36 | 45 | 5.0 | 5.0 | 0.00 | 0.00 | 0.00 | 65 | 862.7 |
| 20260502024101 | 36 | 45 | 1.0 | 4.0 | 0.00 | 0.00 | 0.00 | 65 | 862.9 |
| 20260502023601 | 36 | 67 | 0.0 | 0.0 | 0.00 | 0.00 | 0.00 | 66 | 862.9 |
| 20260502023101 | 36 | 67 | 0.0 | 0.0 | 0.00 | 0.00 | 0.00 | 66 | 862.9 |
| 20260502022601 | 36 | 67 | 0.0 | 1.0 | 0.00 | 0.00 | 0.00 | 66 | 863.0 |
| 20260502022101 | 37 | 315 | 1.0 | 4.0 | 0.00 | 0.00 | 0.00 | 66 | 863.0 |
| 20260502021601 | 37 | 315 | 3.0 | 4.0 | 0.00 | 0.00 | 0.00 | 66 | 862.9 |
| 20260502021101 | 37 | 315 | 2.0 | 3.0 | 0.00 | 0.00 | 0.00 | 66 | 862.9 |
| 20260502020601 | 37 | 315 | 3.0 | 3.0 | 0.00 | 0.00 | 0.00 | 66 | 862.8 |
| 20260502020101 | 37 | 315 | 2.0 | 2.0 | 0.00 | 0.00 | 0.00 | 66 | 862.9 |
| 20260502015601 | 37 | 315 | 0.0 | 3.0 | 0.00 | 0.00 | 0.00 | 66 | 863.0 |
| 20260502015101 | 37 | 315 | 3.0 | 4.0 | 0.00 | 0.00 | 0.00 | 66 | 863.1 |
| 20260502014601 | 37 | 315 | 0.0 | 0.0 | 0.00 | 0.00 | 0.00 | 67 | 863.1 |
| 20260502014101 | 37 | 315 | 0.0 | 0.0 | 0.00 | 0.00 | 0.00 | 66 | 863.0 |
| 20260502013601 | 37 | 315 | 0.0 | 0.0 | 0.00 | 0.00 | 0.00 | 66 | 863.0 |
| 20260502013101 | 37 | 315 | 0.0 | 2.0 | 0.00 | 0.00 | 0.00 | 66 | 863.0 |
| 20260502012601 | 37 | 315 | 0.0 | 5.0 | 0.00 | 0.00 | 0.00 | 66 | 863.1 |
| 20260502012101 | 37 | 315 | 5.0 | 5.0 | 0.00 | 0.00 | 0.00 | 66 | 863.1 |
| 20260502011601 | 38 | 315 | 0.0 | 4.0 | 0.00 | 0.00 | 0.00 | 66 | 863.2 |
| 20260502011101 | 38 | 315 | 0.0 | 2.0 | 0.00 | 0.00 | 0.00 | 67 | 863.2 |
| 20260502010601 | 38 | 315 | 1.0 | 3.0 | 0.00 | 0.00 | 0.00 | 67 | 863.2 |
| 20260502005601 | 37 | 315 | 4.0 | 4.0 | 0.00 | 0.00 | 0.00 | 67 | 863.3 |
| 20260502005101 | 37 | 315 | 1.0 | 5.0 | 0.00 | 0.00 | 0.00 | 68 | 863.5 |
| 20260502004601 | 37 | 315 | 3.0 | 6.0 | 0.00 | 0.00 | 0.00 | 68 | 863.5 |
| 20260502004101 | 37 | 292 | 6.0 | 8.0 | 0.00 | 0.00 | 0.00 | 69 | 863.6 |
| 20260502003601 | 38 | 292 | 4.0 | 7.0 | 0.00 | 0.00 | 0.00 | 69 | 863.5 |
| 20260502003101 | 37 | 315 | 6.0 | 7.0 | 0.00 | 0.00 | 0.00 | 69 | 863.6 |
| 20260502002601 | 38 | 292 | 5.0 | 6.0 | 0.00 | 0.00 | 0.00 | 68 | 863.6 |
| 20260502002101 | 38 | 292 | 4.0 | 6.0 | 0.00 | 0.00 | 0.00 | 68 | 863.8 |
| 20260502001601 | 38 | 292 | 7.0 | 7.0 | 0.00 | 0.00 | 0.00 | 67 | 863.9 |
| 20260502001101 | 38 | 292 | 6.0 | 7.0 | 0.00 | 0.00 | 0.00 | 67 | 863.7 |
| 20260502000601 | 39 | 292 | 5.0 | 6.0 | 0.00 | 0.00 | 0.00 | 66 | 863.7 |
| 20260502000101 | 39 | 315 | 6.0 | 6.0 | 0.00 | 0.00 | 0.00 | 65 | 863.8 |
| 20260501235602 | 39 | 315 | 6.0 | 6.0 | 0.00 | 0.00 | 0.00 | 65 | 863.8 |
| 20260501235101 | 39 | 315 | 5.0 | 7.0 | 0.00 | 0.00 | 0.00 | 66 | 863.8 |
| 20260501234601 | 39 | 292 | 7.0 | 7.0 | 0.00 | 0.00 | 0.00 | 66 | 863.8 |
| 20260501234101 | 39 | 292 | 7.0 | 7.0 | 0.00 | 0.00 | 0.00 | 66 | 864.0 |
| 20260501233601 | 39 | 315 | 6.0 | 6.0 | 0.00 | 0.00 | 0.00 | 65 | 863.9 |
| 20260501233101 | 39 | 315 | 0.0 | 0.0 | 0.00 | 0.00 | 0.00 | 65 | 864.0 |
| 20260501232601 | 39 | 315 | 6.0 | 7.0 | 0.00 | 0.00 | 0.00 | 64 | 863.9 |
| 20260501232101 | 39 | 315 | 7.0 | 8.0 | 0.00 | 0.00 | 0.00 | 64 | 863.8 |
| 20260501231601 | 39 | 292 | 7.0 | 8.0 | 0.00 | 0.00 | 0.00 | 64 | 863.8 |
| 20260501231101 | 39 | 315 | 6.0 | 7.0 | 0.00 | 0.00 | 0.00 | 63 | 863.8 |
| 20260501230601 | 40 | 315 | 5.0 | 6.0 | 0.00 | 0.00 | 0.00 | 63 | 863.8 |
| 20260501230101 | 40 | 315 | 4.0 | 6.0 | 0.00 | 0.00 | 0.00 | 63 | 863.6 |
| 20260501225601 | 40 | 315 | 6.0 | 8.0 | 0.00 | 0.00 | 0.00 | 62 | 863.6 |
| 20260501225101 | 40 | 315 | 3.0 | 6.0 | 0.00 | 0.00 | 0.00 | 63 | 863.6 |
| 20260501224601 | 40 | 315 | 6.0 | 6.0 | 0.00 | 0.00 | 0.00 | 63 | 863.8 |
| 20260501224101 | 40 | 315 | 4.0 | 6.0 | 0.00 | 0.00 | 0.00 | 63 | 863.8 |
| 20260501223601 | 40 | 315 | 5.0 | 5.0 | 0.00 | 0.00 | 0.00 | 63 | 863.8 |
| 20260501223101 | 40 | 315 | 3.0 | 6.0 | 0.00 | 0.00 | 0.00 | 63 | 863.7 |
| 20260501222601 | 40 | 315 | 4.0 | 6.0 | 0.00 | 0.00 | 0.00 | 63 | 863.8 |
| 20260501222101 | 40 | 315 | 4.0 | 6.0 | 0.00 | 0.00 | 0.00 | 63 | 863.7 |
| 20260501221601 | 40 | 315 | 2.0 | 6.0 | 0.00 | 0.00 | 0.00 | 64 | 863.6 |
| 20260501221101 | 40 | 315 | 3.0 | 6.0 | 0.00 | 0.00 | 0.00 | 64 | 863.8 |
| 20260501220602 | 40 | 315 | 5.0 | 5.0 | 0.00 | 0.00 | 0.00 | 64 | 863.8 |
| 20260501215602 | 40 | 315 | 3.0 | 5.0 | 0.00 | 0.00 | 0.00 | 65 | 863.9 |
| 20260501215101 | 41 | 315 | 2.0 | 4.0 | 0.00 | 0.00 | 0.00 | 65 | 863.8 |
| 20260501214601 | 41 | 315 | 4.0 | 5.0 | 0.00 | 0.00 | 0.00 | 65 | 863.8 |
| 20260501214101 | 41 | 315 | 1.0 | 6.0 | 0.00 | 0.00 | 0.00 | 65 | 863.6 |
| 20260501213601 | 41 | 315 | 5.0 | 5.0 | 0.00 | 0.00 | 0.00 | 66 | 863.6 |
| 20260501213101 | 41 | 315 | 5.0 | 6.0 | 0.00 | 0.00 | 0.00 | 66 | 863.4 |
| 20260501212602 | 41 | 292 | 4.0 | 4.0 | 0.00 | 0.00 | 0.00 | 65 | 863.4 |
| 20260501212102 | 41 | 315 | 1.0 | 2.0 | 0.00 | 0.00 | 0.00 | 65 | 863.5 |
| 20260501211602 | 41 | 315 | 2.0 | 2.0 | 0.00 | 0.00 | 0.00 | 64 | 863.5 |
| 20260501211102 | 41 | 315 | 0.0 | 0.0 | 0.00 | 0.00 | 0.00 | 63 | 863.6 |
| 20260501210601 | 41 | 315 | 0.0 | 1.0 | 0.00 | 0.00 | 0.00 | 63 | 863.5 |
| 20260501205602 | 41 | 315 | 0.0 | 0.0 | 0.00 | 0.00 | 0.00 | 62 | 863.3 |
| 20260501205102 | 41 | 315 | 0.0 | 0.0 | 0.00 | 0.00 | 0.00 | 62 | 863.3 |
| 20260501204602 | 41 | 315 | 0.0 | 2.0 | 0.00 | 0.00 | 0.00 | 63 | 863.2 |
| 20260501204102 | 41 | 315 | 0.0 | 1.0 | 0.00 | 0.00 | 0.00 | 63 | 863.3 |
| 20260501203602 | 41 | 315 | 0.0 | 0.0 | 0.00 | 0.00 | 0.00 | 63 | 863.3 |
| 20260501203101 | 40 | 315 | 0.0 | 0.0 | 0.00 | 0.00 | 0.00 | 63 | 863.3 |
| 20260501202601 | 40 | 315 | 0.0 | 0.0 | 0.00 | 0.00 | 0.00 | 64 | 863.3 |
| 20260501202101 | 40 | 315 | 0.0 | 0.0 | 0.00 | 0.00 | 0.00 | 64 | 863.2 |
| 20260501201601 | 40 | 315 | 0.0 | 0.0 | 0.00 | 0.00 | 0.00 | 64 | 863.3 |
| 20260501201101 | 39 | 315 | 0.0 | 2.0 | 0.00 | 0.00 | 0.00 | 64 | 863.4 |
| 20260501200601 | 39 | 315 | 0.0 | 0.0 | 0.00 | 0.00 | 0.00 | 64 | 863.5 |
| 20260501200101 | 39 | 292 | 0.0 | 0.0 | 0.00 | 0.00 | 0.00 | 63 | 863.5 |